| time (UTC) | temp F | wind direction | speed MPH | gust MPH | rain 1hr in | rain 24hr in | rain mn in | humidity % | barometer mb |
| 20260902212022 | 96 | 0.0 | 1.0 | 0.00 | 0.00 | 0.00 | 54 | 1019.4 | |
| 20260902211022 | 97 | 0.0 | 1.0 | 0.00 | 0.00 | 0.00 | 54 | 1019.5 | |
| 20260902210022 | 97 | 0.0 | 3.0 | 0.00 | 0.00 | 0.00 | 55 | 1019.5 | |
| 20260902205022 | 97 | 0.0 | 1.0 | 0.00 | 0.00 | 0.00 | 54 | 1019.5 | |
| 20260902204022 | 98 | 0.0 | 1.0 | 0.00 | 0.00 | 0.00 | 53 | 1019.4 | |
| 20260902203022 | 98 | 0.0 | 2.0 | 0.00 | 0.00 | 0.00 | 53 | 1019.6 | |
| 20260902202022 | 98 | 0.0 | 4.0 | 0.00 | 0.00 | 0.00 | 52 | 1019.7 | |
| 20260902201022 | 99 | 0.0 | 2.0 | 0.00 | 0.00 | 0.00 | 50 | 1019.7 | |
| 20260902200022 | 100 | 0.0 | 0.0 | 0.00 | 0.00 | 0.00 | 50 | 1019.8 | |
| 20260902195021 | 99 | 0.0 | 2.0 | 0.00 | 0.00 | 0.00 | 51 | 1019.8 | |
| 20260902194022 | 100 | 0.0 | 1.0 | 0.00 | 0.00 | 0.00 | 51 | 1020.0 | |
| 20260902193022 | 99 | 0.0 | 3.0 | 0.00 | 0.00 | 0.00 | 51 | 1020.0 | |
| 20260902192022 | 99 | 0.0 | 1.0 | 0.00 | 0.00 | 0.00 | 49 | 1020.1 | |
| 20260902191022 | 99 | 0.0 | 3.0 | 0.00 | 0.00 | 0.00 | 49 | 1020.2 | |
| 20260902190104 | 99 | 0.0 | 1.0 | 0.00 | 0.00 | 0.00 | 51 | 1020.3 | |
| 20260902185022 | 98 | 0.0 | 1.0 | 0.00 | 0.00 | 0.00 | 49 | 1020.4 | |
| 20260902184021 | 97 | 0.0 | 2.0 | 0.00 | 0.00 | 0.00 | 54 | 1020.4 | |
| 20260902183022 | 97 | 0.0 | 1.0 | 0.00 | 0.00 | 0.00 | 50 | 1020.6 | |
| 20260902182022 | 97 | 0.0 | 1.0 | 0.00 | 0.00 | 0.00 | 49 | 1020.7 | |
| 20260902181102 | 98 | 0.0 | 1.0 | 0.00 | 0.00 | 0.00 | 49 | 1020.7 | |
| 20260902180022 | 98 | 270 | 1.0 | 2.0 | 0.00 | 0.00 | 0.00 | 48 | 1020.7 |
| 20260902175102 | 99 | 270 | 1.0 | 2.0 | 0.00 | 0.00 | 0.00 | 52 | 1020.9 |
| 20260902174022 | 99 | 0.0 | 1.0 | 0.00 | 0.00 | 0.00 | 48 | 1021.0 | |
| 20260902173022 | 99 | 0.0 | 1.0 | 0.00 | 0.00 | 0.00 | 50 | 1021.1 | |
| 20260902172042 | 99 | 0.0 | 2.0 | 0.00 | 0.00 | 0.00 | 49 | 1021.1 | |
| 20260902171021 | 99 | 0.0 | 1.0 | 0.00 | 0.00 | 0.00 | 51 | 1021.2 | |
| 20260902170522 | 99 | 0.0 | 1.0 | 0.00 | 0.00 | 0.00 | 50 | 1021.2 | |
| 20260902165522 | 100 | 0.0 | 1.0 | 0.00 | 0.00 | 0.00 | 50 | 1021.2 | |
| 20260902164522 | 99 | 0.0 | 2.0 | 0.00 | 0.00 | 0.00 | 51 | 1021.4 | |
| 20260902163523 | 99 | 0.0 | 3.0 | 0.00 | 0.00 | 0.00 | 50 | 1021.5 | |
| 20260902162541 | 98 | 0.0 | 1.0 | 0.00 | 0.00 | 0.00 | 54 | 1021.4 | |
| 20260902161542 | 99 | 0.0 | 1.0 | 0.00 | 0.00 | 0.00 | 51 | 1021.6 | |
| 20260902160522 | 99 | 0.0 | 3.0 | 0.00 | 0.00 | 0.00 | 53 | 1021.7 | |
| 20260902155522 | 99 | 0.0 | 1.0 | 0.00 | 0.00 | 0.00 | 56 | 1021.7 | |
| 20260902154522 | 99 | 0.0 | 1.0 | 0.00 | 0.00 | 0.00 | 55 | 1021.7 | |
| 20260902153542 | 97 | 0.0 | 1.0 | 0.00 | 0.00 | 0.00 | 59 | 1021.9 | |
| 20260902152521 | 95 | 0.0 | 2.0 | 0.00 | 0.00 | 0.00 | 59 | 1021.9 | |
| 20260902151521 | 95 | 0.0 | 1.0 | 0.00 | 0.00 | 0.00 | 61 | 1021.9 | |
| 20260902150541 | 96 | 0.0 | 1.0 | 0.00 | 0.00 | 0.00 | 60 | 1021.9 | |
| 20260902145601 | 95 | 0.0 | 1.0 | 0.00 | 0.00 | 0.00 | 62 | 1021.9 | |
| 20260902144521 | 93 | 0.0 | 1.0 | 0.00 | 0.00 | 0.00 | 63 | 1021.9 | |
| 20260902143602 | 93 | 0.0 | 1.0 | 0.00 | 0.00 | 0.00 | 63 | 1021.8 | |
| 20260902142521 | 93 | 0.0 | 1.0 | 0.00 | 0.00 | 0.00 | 65 | 1021.7 | |
| 20260902141541 | 92 | 0.0 | 0.0 | 0.00 | 0.00 | 0.00 | 64 | 1021.7 | |
| 20260902140541 | 92 | 0.0 | 1.0 | 0.00 | 0.00 | 0.00 | 64 | 1021.7 | |
| 20260902135521 | 92 | 0.0 | 1.0 | 0.00 | 0.00 | 0.00 | 65 | 1021.7 | |
| 20260902134541 | 91 | 0.0 | 1.0 | 0.00 | 0.00 | 0.00 | 69 | 1021.8 | |
| 20260902133521 | 91 | 0.0 | 2.0 | 0.00 | 0.00 | 0.00 | 70 | 1021.8 | |
| 20260902132521 | 90 | 0.0 | 0.0 | 0.00 | 0.00 | 0.00 | 69 | 1021.7 | |
| 20260902131521 | 89 | 0.0 | 0.0 | 0.00 | 0.00 | 0.00 | 71 | 1021.7 | |
| 20260902130521 | 88 | 0.0 | 0.0 | 0.00 | 0.00 | 0.00 | 74 | 1021.7 | |
| 20260902125522 | 86 | 0.0 | 0.0 | 0.00 | 0.00 | 0.00 | 78 | 1021.7 | |
| 20260902124521 | 83 | 0.0 | 0.0 | 0.00 | 0.00 | 0.00 | 82 | 1021.7 | |
| 20260902123541 | 80 | 0.0 | 1.0 | 0.00 | 0.00 | 0.00 | 85 | 1021.7 | |
| 20260902122521 | 79 | 0.0 | 0.0 | 0.00 | 0.00 | 0.00 | 89 | 1021.7 | |
| 20260902121521 | 78 | 0.0 | 0.0 | 0.00 | 0.00 | 0.00 | 90 | 1021.7 | |
| 20260902120521 | 78 | 0.0 | 0.0 | 0.00 | 0.00 | 0.00 | 91 | 1021.6 | |
| 20260902120021 | 78 | 0.0 | 0.0 | 0.00 | 0.00 | 0.00 | 91 | 1021.6 | |
| 20260902115021 | 78 | 0.0 | 0.0 | 0.00 | 0.00 | 0.00 | 91 | 1021.6 | |
| 20260902114127 | 77 | 0.0 | 0.0 | 0.00 | 0.00 | 0.00 | 92 | 1021.5 | |
| 20260902113041 | 76 | 0.0 | 0.0 | 0.00 | 0.00 | 0.00 | 95 | 1021.5 | |
| 20260902112021 | 75 | 0.0 | 0.0 | 0.00 | 0.00 | 0.00 | 94 | 1021.4 | |
| 20260902111021 | 76 | 0.0 | 0.0 | 0.00 | 0.00 | 0.00 | 94 | 1021.3 | |
| 20260902110021 | 76 | 0.0 | 0.0 | 0.00 | 0.00 | 0.00 | 94 | 1021.3 | |
| 20260902105041 | 76 | 0.0 | 0.0 | 0.00 | 0.00 | 0.00 | 94 | 1021.2 | |
| 20260902104041 | 76 | 0.0 | 0.0 | 0.00 | 0.00 | 0.00 | 94 | 1021.2 | |
| 20260902103021 | 76 | 0.0 | 0.0 | 0.00 | 0.00 | 0.00 | 94 | 1021.2 | |
| 20260902102101 | 76 | 0.0 | 0.0 | 0.00 | 0.00 | 0.00 | 93 | 1021.1 | |
| 20260902101042 | 76 | 0.0 | 0.0 | 0.00 | 0.00 | 0.00 | 93 | 1020.9 | |
| 20260902100021 | 76 | 0.0 | 0.0 | 0.00 | 0.00 | 0.00 | 94 | 1020.9 | |
| 20260902095021 | 77 | 0.0 | 0.0 | 0.00 | 0.00 | 0.00 | 93 | 1021.0 | |
| 20260902094021 | 77 | 0.0 | 0.0 | 0.00 | 0.00 | 0.00 | 93 | 1020.7 | |
| 20260902093021 | 77 | 0.0 | 0.0 | 0.00 | 0.00 | 0.00 | 93 | 1020.6 | |
| 20260902092021 | 77 | 0.0 | 0.0 | 0.00 | 0.00 | 0.00 | 92 | 1020.6 | |
| 20260902091041 | 77 | 0.0 | 0.0 | 0.00 | 0.00 | 0.00 | 92 | 1020.5 | |
| 20260902090021 | 77 | 0.0 | 0.0 | 0.00 | 0.00 | 0.00 | 92 | 1020.6 | |
| 20260902085021 | 77 | 0.0 | 0.0 | 0.00 | 0.00 | 0.00 | 91 | 1020.5 | |
| 20260902084521 | 77 | 0.0 | 0.0 | 0.00 | 0.00 | 0.00 | 91 | 1020.6 | |
| 20260902083521 | 77 | 0.0 | 0.0 | 0.00 | 0.00 | 0.00 | 91 | 1020.5 | |
| 20260902082541 | 77 | 0.0 | 0.0 | 0.00 | 0.00 | 0.00 | 90 | 1020.5 | |
| 20260902081521 | 78 | 0.0 | 0.0 | 0.00 | 0.00 | 0.00 | 90 | 1020.3 | |
| 20260902080521 | 78 | 0.0 | 0.0 | 0.00 | 0.00 | 0.00 | 90 | 1020.3 | |
| 20260902075521 | 78 | 0.0 | 0.0 | 0.00 | 0.00 | 0.00 | 90 | 1020.4 | |
| 20260902074541 | 78 | 0.0 | 0.0 | 0.00 | 0.00 | 0.00 | 89 | 1020.3 | |
| 20260902073521 | 78 | 0.0 | 0.0 | 0.00 | 0.00 | 0.00 | 89 | 1020.4 | |
| 20260902072521 | 79 | 0.0 | 0.0 | 0.00 | 0.00 | 0.00 | 89 | 1020.4 | |
| 20260902071543 | 79 | 0.0 | 0.0 | 0.00 | 0.00 | 0.00 | 88 | 1020.6 | |
| 20260902070601 | 79 | 0.0 | 0.0 | 0.00 | 0.00 | 0.00 | 88 | 1020.6 | |
| 20260902065540 | 79 | 0.0 | 0.0 | 0.00 | 0.00 | 0.00 | 88 | 1020.6 | |
| 20260902064521 | 79 | 0.0 | 0.0 | 0.00 | 0.00 | 0.00 | 88 | 1020.7 | |
| 20260902063521 | 79 | 0.0 | 0.0 | 0.00 | 0.00 | 0.00 | 87 | 1020.6 | |
| 20260902062521 | 79 | 0.0 | 0.0 | 0.00 | 0.00 | 0.00 | 87 | 1020.7 | |
| 20260902061521 | 79 | 0.0 | 0.0 | 0.00 | 0.00 | 0.00 | 87 | 1020.8 | |
| 20260902060643 | 79 | 0.0 | 0.0 | 0.00 | 0.00 | 0.00 | 86 | 1020.8 | |
| 20260902060022 | 79 | 0.0 | 0.0 | 0.00 | 0.00 | 0.00 | 86 | 1020.8 | |
| 20260902055022 | 80 | 0.0 | 0.0 | 0.00 | 0.00 | 0.00 | 86 | 1020.8 | |
| 20260902054022 | 80 | 0.0 | 0.0 | 0.00 | 0.00 | 0.00 | 86 | 1020.6 | |
| 20260902053021 | 80 | 0.0 | 0.0 | 0.00 | 0.00 | 0.00 | 86 | 1020.6 | |
| 20260902052042 | 80 | 0.0 | 0.0 | 0.00 | 0.00 | 0.00 | 85 | 1020.5 | |
| 20260902051024 | 80 | 0.0 | 0.0 | 0.00 | 0.00 | 0.00 | 85 | 1020.4 | |
| 20260902050022 | 80 | 0.0 | 0.0 | 0.00 | 0.00 | 0.00 | 85 | 1020.4 | |
| 20260902045022 | 81 | 0.0 | 0.0 | 0.00 | 0.00 | 0.00 | 84 | 1020.3 | |
| 20260902044021 | 81 | 0.0 | 0.0 | 0.00 | 0.00 | 0.00 | 83 | 1020.2 | |
| 20260902043021 | 81 | 0.0 | 0.0 | 0.00 | 0.00 | 0.00 | 83 | 1020.1 | |
| 20260902042021 | 81 | 0.0 | 0.0 | 0.00 | 0.00 | 0.00 | 82 | 1020.0 | |
| 20260902041021 | 82 | 0.0 | 0.0 | 0.00 | 0.00 | 0.00 | 81 | 1020.0 | |
| 20260902040044 | 82 | 0.0 | 0.0 | 0.00 | 0.00 | 0.00 | 81 | 1019.9 | |
| 20260902035522 | 82 | 0.0 | 0.0 | 0.00 | 0.00 | 0.00 | 81 | 1019.9 | |
| 20260902034541 | 82 | 0.0 | 0.0 | 0.00 | 0.00 | 0.00 | 80 | 1019.9 | |
| 20260902033521 | 83 | 0.0 | 0.0 | 0.00 | 0.00 | 0.00 | 80 | 1020.0 | |
| 20260902032522 | 83 | 0.0 | 0.0 | 0.00 | 0.00 | 0.00 | 79 | 1020.1 | |
| 20260902031659 | 83 | 0.0 | 0.0 | 0.00 | 0.00 | 0.00 | 80 | 1020.1 | |
| 20260902031020 | 83 | 0.0 | 0.0 | 0.00 | 0.00 | 0.00 | 79 | 1020.1 | |
| 20260902030020 | 83 | 0.0 | 0.0 | 0.00 | 0.00 | 0.00 | 80 | 1020.0 | |
| 20260902025022 | 83 | 0.0 | 0.0 | 0.00 | 0.00 | 0.00 | 79 | 1020.0 | |
| 20260902024041 | 83 | 0.0 | 0.0 | 0.00 | 0.00 | 0.00 | 79 | 1019.9 | |
| 20260902023020 | 84 | 0.0 | 0.0 | 0.00 | 0.00 | 0.00 | 78 | 1019.9 | |
| 20260902022022 | 84 | 0.0 | 0.0 | 0.00 | 0.00 | 0.00 | 78 | 1020.1 | |
| 20260902021022 | 84 | 0.0 | 0.0 | 0.00 | 0.00 | 0.00 | 77 | 1019.9 | |
| 20260902020022 | 84 | 0.0 | 0.0 | 0.00 | 0.00 | 0.00 | 77 | 1019.8 | |
| 20260902015040 | 84 | 0.0 | 0.0 | 0.00 | 0.00 | 0.00 | 76 | 1019.6 | |
| 20260902014023 | 85 | 0.0 | 0.0 | 0.00 | 0.00 | 0.00 | 76 | 1019.5 | |
| 20260902013022 | 85 | 0.0 | 0.0 | 0.00 | 0.00 | 0.00 | 75 | 1019.4 | |
| 20260902012044 | 85 | 0.0 | 0.0 | 0.00 | 0.00 | 0.00 | 74 | 1019.4 | |
| 20260902011021 | 86 | 0.0 | 0.0 | 0.00 | 0.00 | 0.00 | 73 | 1019.3 | |
| 20260902010022 | 86 | 0.0 | 0.0 | 0.00 | 0.00 | 0.00 | 73 | 1019.1 | |
| 20260902005042 | 87 | 0.0 | 0.0 | 0.00 | 0.00 | 0.00 | 71 | 1018.9 | |
| 20260902004022 | 87 | 0.0 | 0.0 | 0.00 | 0.00 | 0.00 | 70 | 1018.9 | |
| 20260902003020 | 87 | 0.0 | 0.0 | 0.00 | 0.00 | 0.00 | 69 | 1018.9 | |
| 20260902002022 | 88 | 0.0 | 0.0 | 0.00 | 0.00 | 0.00 | 68 | 1018.9 | |
| 20260902001043 | 88 | 0.0 | 0.0 | 0.00 | 0.00 | 0.00 | 67 | 1018.8 | |
| 20260902000022 | 88 | 0.0 | 0.0 | 0.00 | 0.00 | 0.00 | 66 | 1019.0 | |
| 20260901235022 | 89 | 0.0 | 0.0 | 0.00 | 0.00 | 0.00 | 65 | 1019.0 | |
| 20260901234024 | 90 | 0.0 | 0.0 | 0.00 | 0.00 | 0.00 | 63 | 1019.1 | |
| 20260901233022 | 91 | 0.0 | 0.0 | 0.00 | 0.00 | 0.00 | 63 | 1019.2 | |
| 20260901232029 | 91 | 0.0 | 0.0 | 0.00 | 0.00 | 0.00 | 62 | 1019.3 | |
| 20260901231023 | 92 | 0.0 | 0.0 | 0.00 | 0.00 | 0.00 | 60 | 1019.4 | |
| 20260901230022 | 92 | 0.0 | 0.0 | 0.00 | 0.00 | 0.00 | 59 | 1019.4 | |
| 20260901225042 | 93 | 0.0 | 1.0 | 0.00 | 0.00 | 0.00 | 59 | 1019.4 | |
| 20260901224022 | 93 | 0.0 | 1.0 | 0.00 | 0.00 | 0.00 | 57 | 1019.3 | |
| 20260901223022 | 94 | 0.0 | 0.0 | 0.00 | 0.00 | 0.00 | 56 | 1019.3 | |
| 20260901222022 | 94 | 0.0 | 1.0 | 0.00 | 0.00 | 0.00 | 57 | 1019.4 | |
| 20260901221042 | 94 | 0.0 | 0.0 | 0.00 | 0.00 | 0.00 | 55 | 1019.3 | |
| 20260901220024 | 94 | 0.0 | 1.0 | 0.00 | 0.00 | 0.00 | 55 | 1019.2 | |
| 20260901215022 | 94 | 0.0 | 1.0 | 0.00 | 0.00 | 0.00 | 55 | 1019.3 | |
| 20260901214022 | 94 | 0.0 | 1.0 | 0.00 | 0.00 | 0.00 | 56 | 1019.3 | |
| 20260901213022 | 94 | 0.0 | 3.0 | 0.00 | 0.00 | 0.00 | 55 | 1019.4 |